Location: *
(50.3440°N, 18.6237°E)
Time: 16:58:20
(UTC+00:00)

NOSS 0 Rocket - Pass Details

Date: 30 November 2020
Orbit: 937 x 953 km, 70.0° (Epoch: 17 January)

Event Time Altitude Azimuth Distance (km) Brightness Sun altitude
Rises 15:32:35 0° 218° (SW) 3,617 8.3 -7.3°
Reaches altitude 10° 15:35:07 10° 221° (SW) 2,674 7.5 -7.7°
Maximum altitude 15:41:19 68° 305° (NW) 1,023 4.3 -8.6°
Drops below altitude 10° 15:47:32 10° 28° (NNE) 2,682 5.9 -9.5°
Enters shadow 15:48:54 - 30° (NNE) 3,185 6.2 -9.7°
